Location: �clusier
(49.9361°N, 2.7869°E)
Time: 21:48:27
(UTC+00:00)

Meteor 2-5 Rocket - Pass Details

Date: 16 June 2021
Orbit: 833 x 911 km, 81.2° (Epoch: 02 August)

Event Time Altitude Azimuth Distance (km) Brightness Sun altitude
Exits shadow 22:24:26 15° 195° (SSW) 2,135 5.3 -14.3°
Maximum altitude 22:29:10 82° 282° (WNW) 855 3.7 -14.5°
Drops below altitude 10° 22:34:48 10° 11° (N) 2,486 7.1 -14.8°
Sets 22:37:15 0° 12° (NNE) 3,437 8.0 -14.9°
